TimeEST,TemperatureF,Dew PointF,Humidity,Sea Level PressureIn,VisibilityMPH,Wind Direction,Wind SpeedMPH,Gust SpeedMPH,PrecipitationIn,Events,Conditions,WindDirDegrees,DateUTC
12:53 AM,55.0,46.9,74,30.22,10.0,ENE,5.8,-,N/A,,Clear,60,2012-11-10 05:53:00
1:53 AM,54.0,48.0,80,30.22,10.0,ENE,4.6,-,N/A,,Clear,60,2012-11-10 06:53:00
2:53 AM,54.0,48.9,83,30.22,10.0,ENE,5.8,-,N/A,,Scattered Clouds,60,2012-11-10 07:53:00
3:53 AM,54.0,48.0,80,30.22,10.0,ENE,5.8,-,N/A,,Clear,60,2012-11-10 08:53:00
4:53 AM,54.0,48.0,80,30.22,10.0,ENE,8.1,-,N/A,,Clear,60,2012-11-10 09:53:00
5:53 AM,54.0,48.0,80,30.24,10.0,NE,5.8,-,N/A,,Clear,50,2012-11-10 10:53:00
6:53 AM,54.0,48.0,80,30.25,10.0,NE,5.8,-,N/A,,Partly Cloudy,50,2012-11-10 11:53:00
7:53 AM,57.0,48.9,74,30.27,10.0,NE,5.8,-,N/A,,Clear,50,2012-11-10 12:53:00
8:53 AM,64.9,46.9,52,30.29,10.0,ENE,8.1,-,N/A,,Clear,60,2012-11-10 13:53:00
9:53 AM,70.0,48.9,47,30.30,10.0,ENE,10.4,-,N/A,,Clear,70,2012-11-10 14:53:00
10:53 AM,73.0,51.1,46,30.29,10.0,ENE,9.2,-,N/A,,Clear,70,2012-11-10 15:53:00
11:53 AM,75.0,51.1,43,30.27,10.0,East,15.0,18.4,N/A,,Partly Cloudy,80,2012-11-10 16:53:00
12:53 PM,75.0,51.1,43,30.23,10.0,East,12.7,-,N/A,,Partly Cloudy,90,2012-11-10 17:53:00
1:53 PM,77.0,51.1,40,30.20,10.0,East,11.5,17.3,N/A,,Scattered Clouds,80,2012-11-10 18:53:00
2:53 PM,78.1,51.1,39,30.19,10.0,East,12.7,-,N/A,,Partly Cloudy,80,2012-11-10 19:53:00
3:53 PM,77.0,52.0,42,30.19,10.0,East,13.8,19.6,N/A,,Mostly Cloudy,80,2012-11-10 20:53:00
4:53 PM,73.0,52.0,48,30.21,10.0,East,9.2,-,N/A,,Overcast,80,2012-11-10 21:53:00
5:53 PM,71.1,52.0,51,30.22,10.0,East,8.1,-,N/A,,Overcast,80,2012-11-10 22:53:00
6:53 PM,69.1,53.1,57,30.24,10.0,ENE,4.6,-,N/A,,Overcast,70,2012-11-10 23:53:00
7:53 PM,69.1,53.1,57,30.25,10.0,ENE,5.8,-,N/A,,Overcast,70,2012-11-11 00:53:00
8:53 PM,66.9,54.0,63,30.26,10.0,East,8.1,-,N/A,,Mostly Cloudy,80,2012-11-11 01:53:00
9:53 PM,64.0,54.0,70,30.27,10.0,ENE,6.9,-,N/A,,Clear,70,2012-11-11 02:53:00
11:53 PM,61.0,54.0,78,30.25,10.0,ENE,5.8,-,N/A,,Clear,60,2012-11-11 04:53:00